Retour au catalogue

STARLINK-4590

ActifCommunicationsVLEO
NORAD 53606·PAYLOAD·🇺🇸 United States

Lancé Aug 28, 2022 depuis Cape Canaveral Space Force Station

Loading…

Prochains Passages (prochaines 24 heures)

TLE

FraisSource: CelesTrak SupGP

Époque: Sep 14, 2026, 22:08 UTC

1 53606C 22104U   26257.92270833  .00027807  00000+0  82191-3 0  2579
2 53606  53.1590  93.5004 0001277  82.1376 234.0767 15.34363575    12

Suivez STARLINK-4590 en temps réel avec AllMySat

Download on the App Store